| time (UTC) | temp F | wind direction | speed MPH | gust MPH | rain 1hr in | rain 24hr in | rain mn in | humidity % | barometer mb |
| 20260505023004 | 61 | 170 | 0.0 | 1.0 | 0.00 | 0.00 | 0.00 | 72 | 1018.7 |
| 20260505022504 | 61 | 172 | 0.0 | 1.0 | 0.00 | 0.00 | 0.00 | 71 | 1018.7 |
| 20260505022004 | 61 | 168 | 0.0 | 1.0 | 0.00 | 0.00 | 0.00 | 72 | 1018.7 |
| 20260505021504 | 61 | 167 | 0.0 | 2.0 | 0.00 | 0.00 | 0.00 | 72 | 1018.8 |
| 20260505021003 | 61 | 172 | 0.0 | 2.0 | 0.00 | 0.00 | 0.00 | 71 | 1018.6 |
| 20260505020504 | 61 | 194 | 0.0 | 1.0 | 0.00 | 0.00 | 0.00 | 72 | 1018.7 |
| 20260505020003 | 61 | 188 | 0.0 | 1.0 | 0.00 | 0.00 | 0.00 | 71 | 1018.7 |
| 20260505015504 | 61 | 165 | 0.0 | 1.0 | 0.00 | 0.00 | 0.00 | 71 | 1018.7 |
| 20260505015004 | 61 | 172 | 0.0 | 1.0 | 0.00 | 0.00 | 0.00 | 71 | 1018.7 |
| 20260505014717 | 61 | 177 | 0.0 | 1.0 | 0.00 | 0.00 | 0.00 | 71 | 1018.8 |
| 20260505014003 | 61 | 179 | 0.0 | 1.0 | 0.00 | 0.00 | 0.00 | 71 | 1018.8 |
| 20260505013504 | 61 | 181 | 0.0 | 1.0 | 0.00 | 0.00 | 0.00 | 71 | 1018.9 |
| 20260505013216 | 60 | 181 | 0.0 | 1.0 | 0.00 | 0.00 | 0.00 | 71 | 1018.9 |
| 20260505012714 | 60 | 175 | 0.0 | 1.0 | 0.00 | 0.00 | 0.00 | 72 | 1018.8 |
| 20260505012003 | 60 | 150 | 0.0 | 0.0 | 0.00 | 0.00 | 0.00 | 71 | 1018.8 |
| 20260505011503 | 60 | 188 | 0.0 | 3.0 | 0.00 | 0.00 | 0.00 | 71 | 1018.9 |
| 20260505011213 | 60 | 187 | 0.0 | 3.0 | 0.00 | 0.00 | 0.00 | 71 | 1018.9 |
| 20260505010504 | 61 | 175 | 0.0 | 1.0 | 0.00 | 0.00 | 0.00 | 71 | 1018.9 |
| 20260505010003 | 61 | 169 | 0.0 | 1.0 | 0.00 | 0.00 | 0.00 | 72 | 1019.0 |
| 20260505005504 | 61 | 175 | 0.0 | 1.0 | 0.00 | 0.00 | 0.00 | 72 | 1019.1 |
| 20260505005004 | 61 | 177 | 0.0 | 1.0 | 0.00 | 0.00 | 0.00 | 72 | 1019.1 |
| 20260505004503 | 61 | 206 | 0.0 | 1.0 | 0.00 | 0.00 | 0.00 | 71 | 1019.0 |
| 20260505004003 | 61 | 210 | 0.0 | 1.0 | 0.00 | 0.00 | 0.00 | 71 | 1019.0 |
| 20260505003714 | 61 | 210 | 0.0 | 1.0 | 0.00 | 0.00 | 0.00 | 72 | 1019.0 |
| 20260505003004 | 61 | 191 | 0.0 | 0.0 | 0.00 | 0.00 | 0.00 | 71 | 1019.2 |
| 20260505002714 | 61 | 191 | 0.0 | 1.0 | 0.00 | 0.00 | 0.00 | 71 | 1019.2 |
| 20260505002004 | 61 | 190 | 0.0 | 1.0 | 0.00 | 0.00 | 0.00 | 71 | 1019.1 |
| 20260505001503 | 61 | 0 | 0.0 | 0.0 | 0.00 | 0.00 | 0.00 | 70 | 1019.1 |
| 20260505001003 | 61 | 193 | 0.0 | 1.0 | 0.00 | 0.00 | 0.00 | 70 | 1019.2 |
| 20260505000504 | 61 | 193 | 0.0 | 1.0 | 0.00 | 0.00 | 0.00 | 70 | 1019.1 |
| 20260505000003 | 61 | 0 | 0.0 | 0.0 | 0.00 | 0.00 | 0.00 | 69 | 1019.2 |
| 20260504235503 | 61 | 180 | 0.0 | 0.0 | 0.00 | 0.00 | 0.00 | 69 | 1019.4 |
| 20260504235215 | 61 | 176 | 0.0 | 1.0 | 0.00 | 0.00 | 0.00 | 69 | 1019.3 |
| 20260504234504 | 62 | 173 | 0.0 | 1.0 | 0.00 | 0.00 | 0.00 | 69 | 1019.4 |
| 20260504234003 | 62 | 174 | 0.0 | 1.0 | 0.00 | 0.00 | 0.00 | 69 | 1019.3 |
| 20260504233714 | 62 | 173 | 0.0 | 1.0 | 0.00 | 0.00 | 0.00 | 69 | 1019.4 |
| 20260504233004 | 62 | 176 | 0.0 | 1.0 | 0.00 | 0.00 | 0.00 | 69 | 1019.6 |
| 20260504232504 | 62 | 177 | 0.0 | 1.0 | 0.00 | 0.00 | 0.00 | 69 | 1019.6 |
| 20260504232004 | 61 | 173 | 0.0 | 1.0 | 0.00 | 0.00 | 0.00 | 69 | 1019.7 |
| 20260504231504 | 61 | 0 | 0.0 | 0.0 | 0.00 | 0.00 | 0.00 | 69 | 1019.5 |
| 20260504230504 | 62 | 195 | 0.0 | 1.0 | 0.00 | 0.00 | 0.00 | 68 | 1019.7 |
| 20260504230003 | 62 | 0 | 0.0 | 0.0 | 0.00 | 0.00 | 0.00 | 68 | 1019.9 |
| 20260504225713 | 62 | 0 | 0.0 | 0.0 | 0.00 | 0.00 | 0.00 | 68 | 1019.6 |
| 20260504225003 | 62 | 181 | 0.0 | 0.0 | 0.00 | 0.00 | 0.00 | 68 | 1019.7 |
| 20260504224504 | 62 | 190 | 0.0 | 1.0 | 0.00 | 0.00 | 0.00 | 68 | 1019.8 |
| 20260504224003 | 62 | 181 | 0.0 | 1.0 | 0.00 | 0.00 | 0.00 | 67 | 1020.0 |
| 20260504223504 | 62 | 163 | 0.0 | 2.0 | 0.00 | 0.00 | 0.00 | 67 | 1020.0 |
| 20260504223004 | 62 | 142 | 0.0 | 2.0 | 0.00 | 0.00 | 0.00 | 68 | 1019.9 |
| 20260504222503 | 62 | 143 | 0.0 | 1.0 | 0.00 | 0.00 | 0.00 | 68 | 1020.1 |
| 20260504222214 | 62 | 146 | 0.0 | 1.0 | 0.00 | 0.00 | 0.00 | 68 | 1019.8 |
| 20260504221504 | 63 | 146 | 1.0 | 4.0 | 0.00 | 0.00 | 0.00 | 66 | 1020.1 |
| 20260504221003 | 63 | 134 | 1.0 | 4.0 | 0.00 | 0.00 | 0.00 | 66 | 1020.0 |
| 20260504220504 | 63 | 174 | 0.0 | 1.0 | 0.00 | 0.00 | 0.00 | 67 | 1020.2 |
| 20260504220005 | 63 | 178 | 0.0 | 1.0 | 0.00 | 0.00 | 0.00 | 66 | 1019.9 |
| 20260504215504 | 63 | 182 | 0.0 | 2.0 | 0.00 | 0.00 | 0.00 | 66 | 1020.0 |
| 20260504215004 | 64 | 184 | 0.0 | 2.0 | 0.00 | 0.00 | 0.00 | 65 | 1020.0 |
| 20260504214503 | 64 | 182 | 0.0 | 1.0 | 0.00 | 0.00 | 0.00 | 65 | 1020.1 |
| 20260504214004 | 64 | 204 | 0.0 | 1.0 | 0.00 | 0.00 | 0.00 | 64 | 1020.2 |
| 20260504213716 | 64 | 0 | 0.0 | 0.0 | 0.00 | 0.00 | 0.00 | 64 | 1020.2 |
| 20260504213003 | 64 | 0 | 0.0 | 0.0 | 0.00 | 0.00 | 0.00 | 64 | 1020.2 |
| 20260504212503 | 64 | 185 | 0.0 | 0.0 | 0.00 | 0.00 | 0.00 | 64 | 1020.2 |
| 20260504212004 | 64 | 185 | 0.0 | 0.0 | 0.00 | 0.00 | 0.00 | 64 | 1020.1 |
| 20260504211504 | 64 | 171 | 0.0 | 1.0 | 0.00 | 0.00 | 0.00 | 64 | 1019.9 |
| 20260504211003 | 64 | 155 | 0.0 | 1.0 | 0.00 | 0.00 | 0.00 | 65 | 1020.1 |
| 20260504210504 | 64 | 166 | 0.0 | 2.0 | 0.00 | 0.00 | 0.00 | 65 | 1020.0 |
| 20260504210004 | 64 | 176 | 0.0 | 2.0 | 0.00 | 0.00 | 0.00 | 64 | 1020.1 |
| 20260504205504 | 64 | 166 | 1.0 | 2.0 | 0.00 | 0.00 | 0.00 | 64 | 1020.2 |
| 20260504205004 | 64 | 147 | 1.0 | 4.0 | 0.00 | 0.00 | 0.00 | 64 | 1020.1 |
| 20260504204716 | 64 | 147 | 1.0 | 4.0 | 0.00 | 0.00 | 0.00 | 65 | 1020.2 |
| 20260504204003 | 64 | 151 | 1.0 | 3.0 | 0.00 | 0.00 | 0.00 | 64 | 1020.3 |
| 20260504203503 | 64 | 152 | 1.0 | 3.0 | 0.00 | 0.00 | 0.00 | 64 | 1020.2 |
| 20260504203003 | 64 | 153 | 1.0 | 3.0 | 0.00 | 0.00 | 0.00 | 63 | 1020.4 |
| 20260504202503 | 64 | 139 | 1.0 | 3.0 | 0.00 | 0.00 | 0.00 | 63 | 1020.3 |
| 20260504202003 | 64 | 132 | 1.0 | 3.0 | 0.00 | 0.00 | 0.00 | 63 | 1020.4 |
| 20260504201504 | 64 | 140 | 1.0 | 3.0 | 0.00 | 0.00 | 0.00 | 62 | 1020.4 |
| 20260504201216 | 64 | 147 | 1.0 | 2.0 | 0.00 | 0.00 | 0.00 | 62 | 1020.3 |
| 20260504200504 | 64 | 160 | 2.0 | 6.0 | 0.00 | 0.00 | 0.00 | 62 | 1020.4 |
| 20260504200004 | 64 | 174 | 1.0 | 3.0 | 0.00 | 0.00 | 0.00 | 61 | 1020.2 |
| 20260504195503 | 64 | 157 | 1.0 | 4.0 | 0.00 | 0.00 | 0.00 | 61 | 1020.4 |
| 20260504195004 | 65 | 140 | 1.0 | 4.0 | 0.00 | 0.00 | 0.00 | 61 | 1020.4 |
| 20260504194503 | 65 | 156 | 1.0 | 3.0 | 0.00 | 0.00 | 0.00 | 60 | 1020.3 |
| 20260504194004 | 65 | 155 | 1.0 | 4.0 | 0.00 | 0.00 | 0.00 | 60 | 1020.3 |
| 20260504193504 | 65 | 174 | 1.0 | 4.0 | 0.00 | 0.00 | 0.00 | 59 | 1020.3 |
| 20260504193004 | 65 | 168 | 1.0 | 2.0 | 0.00 | 0.00 | 0.00 | 59 | 1020.2 |
| 20260504192504 | 65 | 161 | 1.0 | 2.0 | 0.00 | 0.00 | 0.00 | 59 | 1020.1 |
| 20260504192004 | 66 | 166 | 1.0 | 2.0 | 0.00 | 0.00 | 0.00 | 59 | 1020.1 |
| 20260504191503 | 66 | 163 | 1.0 | 2.0 | 0.00 | 0.00 | 0.00 | 59 | 1020.1 |
| 20260504191005 | 66 | 166 | 1.0 | 2.0 | 0.00 | 0.00 | 0.00 | 59 | 1020.1 |
| 20260504190715 | 66 | 166 | 1.0 | 2.0 | 0.00 | 0.00 | 0.00 | 59 | 1019.9 |
| 20260504190003 | 66 | 164 | 1.0 | 2.0 | 0.00 | 0.00 | 0.00 | 58 | 1019.9 |
| 20260504185503 | 66 | 168 | 1.0 | 2.0 | 0.00 | 0.00 | 0.00 | 58 | 1019.9 |
| 20260504185003 | 66 | 158 | 1.0 | 3.0 | 0.00 | 0.00 | 0.00 | 58 | 1019.8 |
| 20260504184717 | 66 | 150 | 1.0 | 3.0 | 0.00 | 0.00 | 0.00 | 58 | 1020.0 |
| 20260504184003 | 67 | 166 | 1.0 | 2.0 | 0.00 | 0.00 | 0.00 | 57 | 1019.8 |
| 20260504183503 | 67 | 175 | 1.0 | 3.0 | 0.00 | 0.00 | 0.00 | 58 | 1019.8 |
| 20260504183004 | 67 | 179 | 1.0 | 4.0 | 0.00 | 0.00 | 0.00 | 57 | 1019.7 |
| 20260504182504 | 67 | 167 | 1.0 | 4.0 | 0.00 | 0.00 | 0.00 | 57 | 1019.7 |
| 20260504182004 | 67 | 151 | 1.0 | 2.0 | 0.00 | 0.00 | 0.00 | 57 | 1019.6 |
| 20260504181503 | 67 | 170 | 1.0 | 3.0 | 0.00 | 0.00 | 0.00 | 56 | 1019.5 |
| 20260504181004 | 68 | 175 | 1.0 | 3.0 | 0.00 | 0.00 | 0.00 | 56 | 1019.6 |
| 20260504180503 | 68 | 162 | 1.0 | 2.0 | 0.00 | 0.00 | 0.00 | 55 | 1019.6 |
| 20260504180004 | 68 | 160 | 1.0 | 3.0 | 0.00 | 0.00 | 0.00 | 55 | 1019.4 |
| 20260504175503 | 69 | 178 | 1.0 | 3.0 | 0.00 | 0.00 | 0.00 | 54 | 1019.2 |
| 20260504175003 | 69 | 185 | 1.0 | 3.0 | 0.00 | 0.00 | 0.00 | 53 | 1019.2 |
| 20260504174503 | 70 | 174 | 1.0 | 3.0 | 0.00 | 0.00 | 0.00 | 53 | 1019.2 |
| 20260504174003 | 70 | 188 | 1.0 | 3.0 | 0.00 | 0.00 | 0.00 | 52 | 1019.1 |
| 20260504173503 | 70 | 191 | 1.0 | 3.0 | 0.00 | 0.00 | 0.00 | 51 | 1019.0 |
| 20260504173003 | 71 | 195 | 0.0 | 1.0 | 0.00 | 0.00 | 0.00 | 49 | 1019.1 |
| 20260504172503 | 71 | 186 | 0.0 | 1.0 | 0.00 | 0.00 | 0.00 | 47 | 1018.9 |
| 20260504172003 | 71 | 158 | 0.0 | 1.0 | 0.00 | 0.00 | 0.00 | 48 | 1018.8 |
| 20260504171504 | 71 | 170 | 0.0 | 1.0 | 0.00 | 0.00 | 0.00 | 46 | 1018.7 |
| 20260504171004 | 71 | 164 | 0.0 | 2.0 | 0.00 | 0.00 | 0.00 | 45 | 1018.9 |
| 20260504170504 | 71 | 162 | 0.0 | 2.0 | 0.00 | 0.00 | 0.00 | 43 | 1018.9 |
| 20260504150504 | 71 | 91 | 1.0 | 6.0 | 0.00 | 0.00 | 0.00 | 50 | 1018.9 |
| 20260504141003 | 72 | 80 | 1.0 | 3.0 | 0.00 | 0.00 | 0.00 | 50 | 1019.6 |
| 20260504140713 | 72 | 86 | 1.0 | 6.0 | 0.00 | 0.00 | 0.00 | 48 | 1019.3 |
| 20260504130503 | 71 | 108 | 2.0 | 5.0 | 0.00 | 0.00 | 0.00 | 51 | 1020.1 |
| 20260504120217 | 72 | 140 | 3.0 | 8.0 | 0.00 | 0.00 | 0.00 | 53 | 1020.6 |
| 20260504110504 | 72 | 132 | 3.0 | 7.0 | 0.00 | 0.00 | 0.00 | 54 | 1020.8 |
| 20260504100503 | 78 | 180 | 1.0 | 3.0 | 0.00 | 0.00 | 0.00 | 35 | 1021.0 |
| 20260504081716 | 75 | 200 | 2.0 | 4.0 | 0.00 | 0.00 | 0.00 | 44 | 1021.3 |
| 20260504081004 | 74 | 198 | 2.0 | 6.0 | 0.00 | 0.00 | 0.00 | 46 | 1021.2 |
| 20260504080504 | 74 | 188 | 1.0 | 6.0 | 0.00 | 0.00 | 0.00 | 45 | 1021.4 |
| 20260504050504 | 62 | 170 | 0.0 | 1.0 | 0.00 | 0.00 | 0.00 | 66 | 1021.3 |
| 20260504050217 | 61 | 168 | 0.0 | 1.0 | 0.00 | 0.00 | 0.00 | 66 | 1021.2 |
| 20260504045503 | 60 | 187 | 0.0 | 1.0 | 0.00 | 0.00 | 0.00 | 68 | 1020.9 |
| 20260504045004 | 59 | 188 | 0.0 | 1.0 | 0.00 | 0.00 | 0.00 | 70 | 1021.2 |
| 20260504044716 | 58 | 187 | 0.0 | 1.0 | 0.00 | 0.00 | 0.00 | 71 | 1021.2 |
| 20260504044003 | 58 | 185 | 0.0 | 1.0 | 0.00 | 0.00 | 0.00 | 72 | 1021.2 |
| 20260504043504 | 58 | 184 | 0.0 | 1.0 | 0.00 | 0.00 | 0.00 | 73 | 1021.2 |
| 20260504043004 | 58 | 169 | 0.0 | 1.0 | 0.00 | 0.00 | 0.00 | 73 | 1021.2 |
| 20260504042503 | 58 | 170 | 0.0 | 1.0 | 0.00 | 0.00 | 0.00 | 73 | 1021.0 |
| 20260504042003 | 58 | 185 | 0.0 | 1.0 | 0.00 | 0.00 | 0.00 | 73 | 1021.0 |
| 20260504041504 | 57 | 194 | 0.0 | 1.0 | 0.00 | 0.00 | 0.00 | 73 | 1020.8 |
| 20260504041003 | 57 | 177 | 0.0 | 1.0 | 0.00 | 0.00 | 0.00 | 73 | 1020.7 |
| 20260504040503 | 57 | 177 | 0.0 | 2.0 | 0.00 | 0.00 | 0.00 | 72 | 1020.9 |
| 20260504040003 | 57 | 179 | 0.0 | 2.0 | 0.00 | 0.00 | 0.00 | 72 | 1020.8 |
| 20260504035504 | 57 | 169 | 1.0 | 1.0 | 0.00 | 0.00 | 0.00 | 71 | 1021.0 |
| 20260504035003 | 58 | 169 | 1.0 | 2.0 | 0.00 | 0.00 | 0.00 | 71 | 1020.9 |
| 20260504034503 | 58 | 182 | 0.0 | 2.0 | 0.00 | 0.00 | 0.00 | 70 | 1020.7 |
| 20260504034003 | 58 | 176 | 0.0 | 2.0 | 0.00 | 0.00 | 0.00 | 70 | 1021.0 |
| 20260504033504 | 57 | 176 | 1.0 | 2.0 | 0.00 | 0.00 | 0.00 | 71 | 1020.8 |
| 20260504033003 | 58 | 183 | 0.0 | 2.0 | 0.00 | 0.00 | 0.00 | 72 | 1020.8 |
| 20260504032503 | 57 | 173 | 0.0 | 1.0 | 0.00 | 0.00 | 0.00 | 73 | 1020.9 |
| 20260504032004 | 57 | 181 | 0.0 | 2.0 | 0.00 | 0.00 | 0.00 | 73 | 1021.2 |
| 20260504031504 | 57 | 182 | 0.0 | 2.0 | 0.00 | 0.00 | 0.00 | 73 | 1021.0 |
| 20260504031004 | 57 | 184 | 0.0 | 1.0 | 0.00 | 0.00 | 0.00 | 73 | 1021.1 |
| 20260504030503 | 57 | 183 | 0.0 | 1.0 | 0.00 | 0.00 | 0.00 | 73 | 1021.1 |
| 20260504030218 | 57 | 186 | 0.0 | 1.0 | 0.00 | 0.00 | 0.00 | 73 | 1021.0 |
| 20260504025503 | 57 | 182 | 0.0 | 1.0 | 0.00 | 0.00 | 0.00 | 73 | 1021.0 |
| 20260504025004 | 57 | 181 | 0.0 | 2.0 | 0.00 | 0.00 | 0.00 | 74 | 1021.2 |
| 20260504024503 | 57 | 183 | 0.0 | 2.0 | 0.00 | 0.00 | 0.00 | 74 | 1021.3 |
| 20260504024004 | 56 | 167 | 0.0 | 1.0 | 0.00 | 0.00 | 0.00 | 75 | 1021.4 |
| 20260504023503 | 56 | 168 | 0.0 | 2.0 | 0.00 | 0.00 | 0.00 | 75 | 1021.3 |